Voltar ao catálogo

FENGYUN 1C DEB

LostPO
NORAD 37440·DEBRIS·🇨🇳 China

Lançado May 10, 1999 de Taiyuan Satellite Launch Center

Loading…

Próximas Passagens (próximas 24 horas)

TLE

ObsoletoSource: Space-Track

Época: Aug 2, 2022, 05:11 UTC

1 37440U 99025EHJ 22214.21664166  .00002096  00000-0  74444-3 0  9999
2 37440  99.0194  31.0852 0066522  49.1287 311.5634 14.34299168783854

Acompanhe FENGYUN 1C DEB em tempo real com AllMySat

Download on the App Store